DW6345 Murcia ES current weather conditions

sailwx.info

Wind from 243 at 0 knots gusting 2

Air temperature 18.9° C
Dewpoint 10.7° C

Last reported at 2014-Oct-24 22:45 UTC.
Time now 2014-Oct-24 23:16 UTC

Location: N 37°60' W 001°06'.
View on Google Maps.

See reports from other nearby stations

  
Tides and Currents Weather Stations Pressure Air Temp Water Temp Dewpoint Dewpoint Depression Visibility Wind Speed Wind Dir Waves Ship Positions
date/time (UTC)wind fromknots sea level pressurealtimeterstation pressurevisibilityair tempwater tempwave heightnotes
2014-Oct-24 22:45 243 0 gusting 2 18.9
2014-Oct-24 22:35 303 1 gusting 5 18.9
2014-Oct-24 22:25 270 1 gusting 5 18.3
2014-Oct-24 22:14 270 2 gusting 5 18.3
2014-Oct-24 22:05 225 1 gusting 2 17.8
2014-Oct-24 21:55 248 1 gusting 2 17.8
2014-Oct-24 21:45 261 17.8
2014-Oct-24 21:35 315 17.8
2014-Oct-24 21:25 315 18.3
2014-Oct-24 21:15 090 17.8
2014-Oct-24 21:05 180 18.3
2014-Oct-24 20:55 120 18.3
2014-Oct-24 20:45 090 0 gusting 2 18.9
2014-Oct-24 20:35 090 1 gusting 2 18.9
2014-Oct-24 20:25 090 1 gusting 2 18.9
2014-Oct-24 20:15 084 0 gusting 1 18.9
2014-Oct-24 20:05 090 0 gusting 4 19.4
2014-Oct-24 19:55 111 1 gusting 5 19.4
2014-Oct-24 19:45 078 2 gusting 6 19.4
2014-Oct-24 19:35 090 3 gusting 5 20.0
2014-Oct-24 19:25 103 1 gusting 4 20.0
2014-Oct-24 19:15 090 2 gusting 5 20.0
2014-Oct-24 19:05 135 2 gusting 5 20.6
2014-Oct-24 18:55 090 3 gusting 6 21.1
2014-Oct-24 18:45 080 3 gusting 6 21.1
2014-Oct-24 18:35 090 4 gusting 6 21.7
2014-Oct-24 18:25 068 4 gusting 6 22.2
2014-Oct-24 18:15 065 2 gusting 6 22.8
2014-Oct-24 18:05 090 1 gusting 6 23.3
2014-Oct-24 17:55 089 4 gusting 6 23.9
2014-Oct-24 17:45 099 1 gusting 4 23.9
2014-Oct-24 17:35 090 1 gusting 4 24.4
2014-Oct-24 17:25 071 1 gusting 4 25.0
2014-Oct-24 17:15 090 0 gusting 2 25.6
2014-Oct-24 17:05 090 0 gusting 5 26.1
2014-Oct-24 16:55 177 1 gusting 6 26.1
2014-Oct-24 16:45 180 2 gusting 6 26.7
2014-Oct-24 16:35 180 4 gusting 6 27.2
2014-Oct-24 16:25 180 2 gusting 6 27.8
2014-Oct-24 16:15 180 2 gusting 6 28.3
2014-Oct-24 16:05 090 5 gusting 6 27.8
2014-Oct-24 15:55 096 2 gusting 7 28.3
2014-Oct-24 15:45 064 2 gusting 8 28.3
2014-Oct-24 15:35 090 3 gusting 8 28.3
2014-Oct-24 15:25 090 5 gusting 8 28.3
2014-Oct-24 15:15 090 5 gusting 8 28.3
2014-Oct-24 15:05 092 3 gusting 8 28.3
2014-Oct-24 14:55 181 5 gusting 10 28.3
2014-Oct-24 14:45 090 6 gusting 8 28.3
2014-Oct-24 14:15 090 4 gusting 7 28.9
2014-Oct-24 14:05 090 4 gusting 8 28.9
2014-Oct-24 13:55 101 4 gusting 8 28.3
2014-Oct-24 13:45 154 4 gusting 13 28.3
2014-Oct-24 13:35 090 2 gusting 7 28.3
2014-Oct-24 13:25 075 2 gusting 6 28.9
2014-Oct-24 13:15 342 4 gusting 8 28.9
2014-Oct-24 13:05 090 1 gusting 6 28.9
2014-Oct-24 12:55 068 2 gusting 6 28.9
2014-Oct-24 12:45 045 2 gusting 6 28.3
2014-Oct-24 12:35 090 2 gusting 6 28.3
2014-Oct-24 12:25 081 2 gusting 6 28.3
2014-Oct-24 12:15 279 0 gusting 4 28.3
2014-Oct-24 12:05 045 0 gusting 6 28.3
2014-Oct-24 11:55 090 0 gusting 6 28.3
2014-Oct-24 11:45 067 1 gusting 5 27.2
2014-Oct-24 11:35 249 0 gusting 5 27.8
2014-Oct-24 11:25 045 0 gusting 2 27.8
2014-Oct-24 11:15 225 26.1
2014-Oct-24 11:05 270 0 gusting 2 26.1
2014-Oct-24 10:55 197 0 gusting 4 25.6
2014-Oct-24 10:45 225 0 gusting 5 25.0
2014-Oct-24 10:35 210 0 gusting 5 24.4
2014-Oct-24 10:25 270 3 gusting 5 23.9
2014-Oct-24 10:15 280 3 gusting 6 23.9
2014-Oct-24 10:05 315 1 gusting 5 23.3
2014-Oct-24 09:55 315 2 gusting 6 22.8
2014-Oct-24 09:45 270 4 gusting 6 22.8
2014-Oct-24 09:35 270 1 gusting 5 22.8
2014-Oct-24 09:25 270 2 gusting 5 22.2
2014-Oct-24 09:15 264 3 gusting 5 21.7
2014-Oct-24 09:05 315 1 gusting 4 21.7
2014-Oct-24 08:55 270 1 gusting 5 21.1
2014-Oct-24 08:45 302 1 gusting 5 21.1
2014-Oct-24 08:35 315 2 gusting 5 20.6
2014-Oct-24 08:25 315 2 gusting 5 20.0
2014-Oct-24 08:15 272 2 gusting 5 19.4
2014-Oct-24 08:05 225 0 gusting 2 18.9
2014-Oct-24 07:55 249 0 gusting 2 18.3
2014-Oct-24 07:45 225 0 gusting 2 17.8
2014-Oct-24 07:35 192 0 gusting 2 17.2
2014-Oct-24 07:25 218 0 gusting 2 17.2
2014-Oct-24 07:15 216 0 gusting 2 16.7
2014-Oct-24 07:05 270 0 gusting 2 16.1
2014-Oct-24 06:55 276 1 gusting 2 16.1
2014-Oct-24 06:45 225 0 gusting 2 16.1
2014-Oct-24 06:35 209 0 gusting 2 16.1
2014-Oct-24 06:25 270 1 gusting 2 16.1
2014-Oct-24 06:15 225 1 gusting 2 16.7
2014-Oct-24 06:05 270 0 gusting 2 16.7
2014-Oct-24 05:55 248 1 gusting 4 16.7
2014-Oct-24 05:45 225 0 gusting 2 17.2
2014-Oct-24 05:35 238 0 gusting 2 17.8
2014-Oct-24 05:25 261 1 gusting 4 17.2
2014-Oct-24 05:15 270 2 gusting 5 17.2
2014-Oct-24 05:05 270 2 gusting 5 16.7
2014-Oct-24 04:55 270 2 gusting 5 16.1
2014-Oct-24 04:45 225 1 gusting 2 16.1
2014-Oct-24 04:35 225 1 gusting 2 16.1
2014-Oct-24 04:25 225 1 gusting 4 16.1
2014-Oct-24 04:15 225 2 gusting 5 16.1
2014-Oct-24 04:05 270 0 gusting 2 15.6
2014-Oct-24 03:55 180 0 gusting 2 16.1
2014-Oct-24 03:45 315 0 gusting 2 15.6
2014-Oct-24 03:35 225 0 gusting 2 16.1
2014-Oct-24 03:25 180 1 gusting 2 16.7
2014-Oct-24 03:15 270 1 gusting 4 16.1
2014-Oct-24 03:05 225 2 gusting 4 16.1
2014-Oct-24 02:55 180 1 gusting 5 16.7
2014-Oct-24 02:45 270 1 gusting 2 17.2
2014-Oct-24 02:35 315 1 gusting 4 17.2
2014-Oct-24 02:25 315 0 gusting 4 17.2
2014-Oct-24 02:15 270 1 gusting 4 17.8
2014-Oct-24 02:05 270 0 gusting 4 17.8
2014-Oct-24 01:55 270 1 gusting 4 17.2
2014-Oct-24 01:45 302 0 gusting 2 17.2
2014-Oct-24 01:35 146 0 gusting 4 17.8
2014-Oct-24 01:25 270 1 gusting 4 17.8
2014-Oct-24 01:15 315 1 gusting 4 17.8
2014-Oct-24 01:05 270 1 gusting 4 17.8
2014-Oct-24 00:55 270 1 gusting 6 17.8
2014-Oct-24 00:45 270 3 gusting 6 18.3
2014-Oct-24 00:35 225 2 gusting 6 18.3
2014-Oct-24 00:25 270 2 gusting 6 18.3
2014-Oct-24 00:15 252 4 gusting 6 18.3
2014-Oct-24 00:05 270 5 gusting 6 18.9
2014-Oct-23 23:55 270 3 gusting 6 19.4
2014-Oct-23 23:45 273 2 gusting 8 19.4
2014-Oct-23 23:35 279 5 gusting 8 19.4
2014-Oct-23 23:25 286 4 gusting 6 19.4
2014-Oct-23 23:15 270 4 gusting 6 19.4
2014-Oct-23 23:05 315 2 gusting 8 20.0
2014-Oct-23 22:55 270 5 gusting 11 20.0
2014-Oct-23 22:45 201 2 gusting 10 20.0
2014-Oct-23 22:35 231 4 gusting 7 20.6
2014-Oct-23 22:25 270 3 gusting 8 20.6
2014-Oct-23 22:14 270 5 gusting 11 20.6
2014-Oct-23 22:05 225 2 gusting 6 20.0
2014-Oct-23 21:55 270 2 gusting 6 20.0
2014-Oct-23 21:45 270 2 gusting 5 20.0
2014-Oct-23 21:35 296 2 gusting 6 20.6
2014-Oct-23 21:25 285 3 gusting 6 20.6
2014-Oct-23 21:15 271 2 gusting 6 20.6
2014-Oct-23 21:05 180 0 gusting 6 20.6
2014-Oct-23 20:55 270 2 gusting 6 20.6
2014-Oct-23 20:45 294 1 gusting 5 21.1
2014-Oct-23 20:35 270 2 gusting 6 21.1
2014-Oct-23 20:25 315 2 gusting 6 21.1
2014-Oct-23 20:15 237 1 gusting 5 21.1
2014-Oct-23 20:05 270 1 gusting 7 21.7
2014-Oct-23 19:55 270 3 gusting 7 21.7
2014-Oct-23 19:45 270 2 gusting 6 21.7
2014-Oct-23 19:35 272 1 gusting 6 21.7
2014-Oct-23 19:25 233 1 gusting 6 21.7
2014-Oct-23 19:15 270 2 gusting 7 22.2
2014-Oct-23 19:05 292 2 gusting 6 22.8
2014-Oct-23 18:55 315 1 gusting 6 22.8
2014-Oct-23 18:45 270 2 gusting 5 22.8
2014-Oct-23 18:25 180 23.3
2014-Oct-23 18:15 123 23.9
2014-Oct-23 18:05 270 0 gusting 5 24.4
2014-Oct-23 17:55 270 1 gusting 5 24.4
2014-Oct-23 17:45 270 1 gusting 5 24.4
2014-Oct-23 17:35 275 1 gusting 5 25.0
2014-Oct-23 17:25 296 0 gusting 5 25.0
2014-Oct-23 17:15 313 1 gusting 5 25.6
2014-Oct-23 17:05 180 2 gusting 5 26.1
2014-Oct-23 16:55 180 2 gusting 5 26.7
2014-Oct-23 16:45 214 2 gusting 5 27.2
2014-Oct-23 16:35 180 2 gusting 5 27.8
2014-Oct-23 16:25 165 0 gusting 5 27.8
2014-Oct-23 16:15 180 2 gusting 5 27.8
2014-Oct-23 16:05 225 4 gusting 6 27.8
2014-Oct-23 15:55 225 2 gusting 5 27.8
2014-Oct-23 15:45 220 2 gusting 5 28.3
2014-Oct-23 15:35 222 2 gusting 6 28.3
2014-Oct-23 15:25 180 1 gusting 4 28.3
2014-Oct-23 15:15 215 2 gusting 6 27.8
2014-Oct-23 15:05 180 0 gusting 5 28.3
2014-Oct-23 14:55 225 1 gusting 5 28.3
2014-Oct-23 14:45 187 1 gusting 5 28.3
2014-Oct-23 14:35 268 2 gusting 5 28.3
2014-Oct-23 14:25 315 2 gusting 5 27.8
2014-Oct-23 14:15 270 2 gusting 6 27.8
2014-Oct-23 14:05 223 0 gusting 6 28.3
2014-Oct-23 13:55 255 1 gusting 5 27.8
2014-Oct-23 13:45 254 1 gusting 5 27.8
2014-Oct-23 13:35 270 1 gusting 4 27.8
2014-Oct-23 13:25 204 1 gusting 5 27.8
2014-Oct-23 13:15 270 2 gusting 5 27.8
2014-Oct-23 13:05 234 0 gusting 5 27.2
2014-Oct-23 12:55 237 1 gusting 6 26.1
2014-Oct-23 12:45 266 2 gusting 6 26.1
2014-Oct-23 12:35 284 0 gusting 5 26.1
2014-Oct-23 12:25 135 0 gusting 5 26.1
2014-Oct-23 12:15 225 2 gusting 7 25.6
2014-Oct-23 12:05 225 4 gusting 7 25.6
2014-Oct-23 11:55 259 0 gusting 5 25.0
2014-Oct-23 11:45 215 1 gusting 5 25.0
2014-Oct-23 11:35 271 1 gusting 6 24.4
2014-Oct-23 11:25 226 2 gusting 6 23.9
2014-Oct-23 11:15 240 2 gusting 6 23.9
2014-Oct-23 11:05 270 0 gusting 5 23.9
2014-Oct-23 10:55 210 2 gusting 5 23.3
2014-Oct-23 10:45 045 22.2
2014-Oct-23 10:35 255 2 gusting 5 22.2
2014-Oct-23 10:25 276 1 gusting 5 21.7
2014-Oct-23 10:15 270 0 gusting 5 21.7
2014-Oct-23 10:05 315 2 gusting 5 21.7
2014-Oct-23 09:55 300 0 gusting 4 21.1
2014-Oct-23 09:45 315 1 gusting 5 20.6
2014-Oct-23 09:35 221 2 gusting 5 20.0
2014-Oct-23 09:25 234 3 gusting 6 20.0
2014-Oct-23 09:15 242 1 gusting 6 19.4
2014-Oct-23 09:05 270 2 gusting 6 18.9
2014-Oct-23 08:55 270 2 gusting 6 18.3
2014-Oct-23 08:45 286 2 gusting 6 17.8
2014-Oct-23 08:35 270 2 gusting 5 17.8
2014-Oct-23 08:25 285 1 gusting 5 17.8
2014-Oct-23 08:15 313 1 gusting 2 17.2
2014-Oct-23 08:05 314 0 gusting 2 17.2
2014-Oct-23 07:55 270 0 gusting 2 16.7
2014-Oct-23 07:45 225 1 gusting 4 16.1
2014-Oct-23 07:35 225 1 gusting 5 16.1
2014-Oct-23 07:25 303 0 gusting 2 15.6
2014-Oct-23 07:15 270 0 gusting 2 15.6
2014-Oct-23 07:05 315 0 gusting 2 15.0
2014-Oct-23 06:55 284 1 gusting 2 15.0
2014-Oct-23 06:45 270 1 gusting 4 15.0
2014-Oct-23 06:35 247 2 gusting 5 15.0
2014-Oct-23 06:25 225 2 gusting 5 15.0
2014-Oct-23 06:15 225 1 gusting 4 15.6
2014-Oct-23 06:05 270 0 gusting 2 15.6
2014-Oct-23 05:55 270 1 gusting 5 15.6
2014-Oct-23 05:45 270 1 gusting 5 15.0
2014-Oct-23 05:35 270 2 gusting 5 15.0
2014-Oct-23 05:25 270 1 gusting 5 15.0
2014-Oct-23 05:15 292 1 gusting 5 15.0
2014-Oct-23 05:05 315 2 gusting 5 15.6
2014-Oct-23 04:55 195 2 gusting 5 15.6
2014-Oct-23 04:45 225 1 gusting 4 15.6
2014-Oct-23 04:35 257 0 gusting 2 15.6
2014-Oct-23 04:25 300 0 gusting 2 15.6
2014-Oct-23 04:15 270 0 gusting 2 15.6
2014-Oct-23 04:05 225 0 gusting 2 15.6
2014-Oct-23 03:55 270 0 gusting 2 15.6
2014-Oct-23 03:45 225 15.6
2014-Oct-23 03:35 266 15.6
2014-Oct-23 03:25 189 0 gusting 4 15.6
2014-Oct-23 03:15 180 0 gusting 2 16.1
2014-Oct-23 03:05 315 0 gusting 1 16.1
2014-Oct-23 02:55 318 16.1
2014-Oct-23 02:45 192 0 gusting 2 16.7
2014-Oct-23 02:35 315 0 gusting 2 16.7
2014-Oct-23 02:25 315 1 gusting 4 16.7
2014-Oct-23 02:15 270 0 gusting 2 17.2
2014-Oct-23 02:05 270 0 gusting 4 17.2
2014-Oct-23 01:55 309 2 gusting 5 17.2
2014-Oct-23 01:45 312 1 gusting 5 17.2
2014-Oct-23 01:35 270 1 gusting 5 17.2
2014-Oct-23 01:25 270 1 gusting 4 17.2
2014-Oct-23 01:15 304 0 gusting 5 17.2
2014-Oct-23 01:05 225 2 gusting 2 17.8
2014-Oct-23 00:55 270 2 gusting 4 17.8
2014-Oct-23 00:45 301 1 gusting 2 17.8
2014-Oct-23 00:35 225 1 gusting 4 17.8
2014-Oct-23 00:25 270 2 gusting 5 17.8
2014-Oct-23 00:15 270 0 gusting 4 17.8
2014-Oct-23 00:05 270 2 gusting 5 18.3
2014-Oct-22 23:55 270 2 gusting 6 18.3
2014-Oct-22 23:45 270 4 gusting 6 18.3
2014-Oct-22 23:35 225 2 gusting 5 18.3
2014-Oct-22 23:25 270 1 gusting 4 18.3
2014-Oct-22 23:15 257 1 gusting 2 18.3
2014-Oct-22 23:05 225 0 gusting 2 18.3